Hourly Data Report for January 16, 2022

MUSKOKA
ONTARIO
Current Station Operator: NAVCAN

44°58'29.000" N
79°18'12.000" W
281.90 m
6115529
71532
YQA

Download Data

Hourly Data (January 2022)
Hourly Data Report for January 16, 2022
TIME
LST
Temp Definition
°C
Dew Point Definition
°C
Rel Hum Definition
%
Precip. Amount Definition
mm

Wind Dir Definition
10's deg

Wind Spd Definition
km/h
Visibility Definition
km
Stn Press Definition
kPa
Hmdx Definition


Wind Chill Definition


Weather Definition


00:00 -28.4 -31.8 73 0.0 LegendMM LegendMM 16.1 99.47     LegendNANA
01:00 -28.5 -32.0 73 0.0 LegendMM LegendMM 16.1 99.37     LegendNANA
02:00 -27.7 -31.2 73 0.0 LegendMM LegendMM 16.1 99.34     LegendNANA
03:00 -26.9 -30.2 74 0.0 LegendMM LegendMM 16.1 99.25     LegendNANA
04:00 -27.4 -30.9 73 0.0 LegendMM LegendMM 16.1 99.14     LegendNANA
05:00 -23.0 -27.4 68 0.0 LegendMM LegendMM 16.1 99.03     Snow
06:00 -22.6 -26.4 72 0.0 LegendMM LegendMM 16.1 98.98     LegendNANA
07:00 -20.8 -24.0 76 0.0 LegendMM LegendMM 16.1 98.93     Snow
08:00 -17.9 -20.7 79 0.0 LegendMM LegendMM 6.4 98.86     Snow
09:00 -17.2 -20.0 79 0.0 LegendMM LegendMM 4.8 98.81     Snow
10:00 -15.3 -18.2 79 0.0 LegendMM LegendMM 4.8 98.71     Snow
11:00 -12.2 -16.3 72 0.0 LegendMM LegendMM 16.1 98.61     LegendNANA
12:00 -10.3 -15.6 65 0.0 LegendMM LegendMM 16.1 98.45     LegendNANA
13:00 -8.7 -14.9 61 0.0 LegendMM LegendMM 16.1 98.29     LegendNANA
14:00 -7.2 -14.6 56 0.0 LegendMM LegendMM 16.1 98.09     LegendNANA
15:00 -7.2 -14.1 58 0.0 LegendMM LegendMM 16.1 97.98     LegendNANA
16:00 -7.2 -13.8 60 0.0 LegendMM LegendMM 16.1 97.89     LegendNANA
17:00 -8.2 -14.2 62 0.0 LegendMM LegendMM 16.1 97.87     LegendNANA
18:00 -9.8 -14.6 68 0.0 LegendMM LegendMM 16.1 97.86     LegendNANA
19:00 -10.0 -14.9 68 0.0 LegendMM LegendMM 16.1 97.81     LegendNANA
20:00 -9.2 -14.3 67 0.0 LegendMM LegendMM 16.1 97.69     LegendNANA
21:00 -8.9 -13.8 68 0.0 LegendMM LegendMM 16.1 97.57     LegendNANA
22:00 -9.4 -13.9 70 0.0 LegendMM LegendMM 16.1 97.46     LegendNANA
23:00 -9.4 -14.3 68 0.0 LegendMM LegendMM 16.1 97.38     LegendNANA

Notes on Data Quality.

Legend

  • E = Estimated
  • M = Missing
  • NA = Not Available*
  • [empty] = Indicates an unobserved value
Date modified: